DAL158 KMCO-GOBD

Flight info

Callsign DAL158
Flight time N/A
Altitude 39000
Route MZULO3 LENDS M203 SNAGY 2960N 2957N 2950N 2945N 2842N 2740N 2434N ULTEM UR976 LUMPO R976 LIGOV
Aircraft A359/H-SDE2E3GHIJ3J4J5LM1ORWXY/LB1D1

Departure

Time 2026-04-25 12:44
Airport Orlando International Airport (KMCO)

Arrival

Time N/A
Airport Blaise Diagne International Airport (GOBD)
Time Latitude Longitude Altitude Speed Heading
2026-04-25 11:55 28.42745 -81.30018 109 ft 0 kts 304°
2026-04-25 11:57 28.42619 -81.30008 109 ft 0 kts 240°
2026-04-25 12:27 28.42620 -81.30005 107 ft 2 kts 253°
2026-04-25 12:27 28.42627 -81.29977 107 ft 4 kts 253°
2026-04-25 12:27 28.42635 -81.29948 114 ft 4 kts 252°
2026-04-25 12:28 28.42644 -81.29919 108 ft 4 kts 248°
2026-04-25 12:28 28.42655 -81.29892 107 ft 4 kts 226°
2026-04-25 12:28 28.42670 -81.29882 106 ft 0 kts 180°
2026-04-25 12:28 28.42670 -81.29883 106 ft 0 kts 180°
2026-04-25 12:29 28.42670 -81.29885 106 ft 0 kts 180°
2026-04-25 12:29 28.42670 -81.29886 106 ft 0 kts 180°
2026-04-25 12:29 28.42670 -81.29887 106 ft 0 kts 180°
2026-04-25 12:30 28.42670 -81.29888 106 ft 0 kts 180°
2026-04-25 12:30 28.42670 -81.29889 106 ft 0 kts 180°
2026-04-25 12:39 28.42657 -81.29889 107 ft 5 kts 180°
2026-04-25 12:39 28.42620 -81.29872 107 ft 7 kts 144°
2026-04-25 12:39 28.42606 -81.29820 107 ft 7 kts 70°
2026-04-25 12:40 28.42651 -81.29799 107 ft 9 kts
2026-04-25 12:40 28.42724 -81.29797 108 ft 12 kts 360°
2026-04-25 12:40 28.42817 -81.29798 107 ft 15 kts 360°
2026-04-25 12:40 28.42931 -81.29798 108 ft 18 kts 360°
2026-04-25 12:41 28.43063 -81.29799 108 ft 20 kts 359°
2026-04-25 12:41 28.43148 -81.29801 108 ft 0 kts 359°
2026-04-25 12:41 28.43219 -81.29803 108 ft 22 kts 358°
2026-04-25 12:42 28.43376 -81.29805 108 ft 18 kts
2026-04-25 12:42 28.43404 -81.29805 108 ft 7 kts
2026-04-25 12:42 28.43517 -81.29802 109 ft 10 kts 12°
2026-04-25 12:42 28.43545 -81.29761 107 ft 8 kts 68°
2026-04-25 12:43 28.43552 -81.29686 107 ft 11 kts 88°
2026-04-25 12:43 28.43532 -81.29606 107 ft 10 kts 145°
2026-04-25 12:43 28.43445 -81.29587 110 ft 0 kts 178°
2026-04-25 12:44 28.43419 -81.29586 111 ft 27 kts 178°
2026-04-25 12:44 28.42918 -81.29580 111 ft 114 kts 179°
2026-04-25 12:44 28.40544 -81.29562 806 ft 202 kts 180°
2026-04-25 12:45 28.39152 -81.29444 1467 ft 225 kts 169°
2026-04-25 12:45 28.38836 -81.29358 1627 ft 230 kts 166°
2026-04-25 12:45 28.35898 -81.27526 3678 ft 236 kts 146°
2026-04-25 12:46 28.34551 -81.26513 4744 ft 232 kts 146°
2026-04-25 12:46 28.33183 -81.25487 5573 ft 237 kts 146°
2026-04-25 12:46 28.31787 -81.24440 6367 ft 246 kts 146°
2026-04-25 12:46 28.29857 -81.22993 6896 ft 249 kts 146°
2026-04-25 12:47 28.28894 -81.22271 7023 ft 244 kts 146°
2026-04-25 12:47 28.27580 -81.21038 7279 ft 249 kts 130°
2026-04-25 12:47 28.26740 -81.19320 7890 ft 252 kts 104°
2026-04-25 12:47 28.26738 -81.17362 8817 ft 251 kts 71°
2026-04-25 12:48 28.27543 -81.15620 9733 ft 252 kts 53°
2026-04-25 12:48 28.28552 -81.13979 10560 ft 256 kts 52°
2026-04-25 12:48 28.29585 -81.12315 11417 ft 259 kts 52°
2026-04-25 12:48 28.30619 -81.10635 12298 ft 262 kts 52°
2026-04-25 12:49 28.31670 -81.08919 13155 ft 267 kts 52°
2026-04-25 12:49 28.32734 -81.07176 13753 ft 270 kts 52°
2026-04-25 12:49 28.33809 -81.05411 13991 ft 273 kts 52°
2026-04-25 12:49 28.34891 -81.03632 14271 ft 274 kts 52°
2026-04-25 12:50 28.35960 -81.01871 14794 ft 275 kts 52°
2026-04-25 12:50 28.37047 -81.00081 15395 ft 277 kts 52°
2026-04-25 12:50 28.38142 -80.98276 16007 ft 279 kts 52°
2026-04-25 12:50 28.39257 -80.96440 16635 ft 287 kts 52°
2026-04-25 12:51 28.40408 -80.94543 17279 ft 295 kts 52°
2026-04-25 12:51 28.41587 -80.92599 17934 ft 303 kts 52°
2026-04-25 12:51 28.42809 -80.90582 18584 ft 310 kts 52°
2026-04-25 12:51 28.44026 -80.88573 19151 ft 316 kts 52°
2026-04-25 12:52 28.45280 -80.86500 19739 ft 322 kts 52°
2026-04-25 12:52 28.46574 -80.84361 20346 ft 327 kts 52°
2026-04-25 12:52 28.47861 -80.82200 20963 ft 333 kts 57°
2026-04-25 12:52 28.48518 -80.79656 21621 ft 342 kts 83°
2026-04-25 12:53 28.48657 -80.76943 22242 ft 346 kts 85°
2026-04-25 12:53 28.48804 -80.74230 22888 ft 349 kts 83°
2026-04-25 12:53 28.49020 -80.71435 23563 ft 351 kts 82°
2026-04-25 12:53 28.49276 -80.68675 24128 ft 352 kts 81°
2026-04-25 12:54 28.49555 -80.65908 24666 ft 353 kts 81°
2026-04-25 12:54 28.49847 -80.63128 25253 ft 354 kts 80°
2026-04-25 12:54 28.50142 -80.60388 25829 ft 354 kts 80°
2026-04-25 12:54 28.50443 -80.57617 26437 ft 353 kts 80°
2026-04-25 12:55 28.50745 -80.54849 27062 ft 351 kts 80°
2026-04-25 12:55 28.50949 -80.52994 27498 ft 350 kts 80°
2026-04-25 12:55 28.51344 -80.49375 28341 ft 346 kts 80°
2026-04-25 12:55 28.51640 -80.46667 29006 ft 342 kts 80°
2026-04-25 12:56 28.51930 -80.44008 29681 ft 336 kts 80°
2026-04-25 12:56 28.52213 -80.41407 30306 ft 329 kts 80°
2026-04-25 12:56 28.52490 -80.38858 30882 ft 320 kts 80°
2026-04-25 12:56 28.52758 -80.36387 31444 ft 311 kts 80°
2026-04-25 12:57 28.53022 -80.33961 31817 ft 308 kts 79°
2026-04-25 12:57 28.53284 -80.31549 32109 ft 306 kts 79°
2026-04-25 12:57 28.53564 -80.29163 32307 ft 306 kts 74°
2026-04-25 12:57 28.54318 -80.26908 32468 ft 303 kts 62°
2026-04-25 12:58 28.55181 -80.24725 32668 ft 304 kts 62°
2026-04-25 12:58 28.56052 -80.22500 32794 ft 309 kts 63°
2026-04-25 12:58 28.56923 -80.20246 32896 ft 314 kts 63°
2026-04-25 12:58 28.57792 -80.17980 32999 ft 319 kts 63°
2026-04-25 12:59 28.58683 -80.15642 33139 ft 325 kts 63°
2026-04-25 12:59 28.59586 -80.13266 33241 ft 331 kts 63°
2026-04-25 12:59 28.60505 -80.10842 33378 ft 336 kts 64°
2026-04-25 12:59 28.61436 -80.08382 33512 ft 342 kts 64°
2026-04-25 13:00 28.62387 -80.05869 33644 ft 348 kts 64°
2026-04-25 13:00 28.63036 -80.04152 33712 ft 352 kts 64°
2026-04-25 13:00 28.64329 -80.00729 33927 ft 360 kts 64°
2026-04-25 13:00 28.65324 -79.98093 34052 ft 366 kts 64°
2026-04-25 13:01 28.66336 -79.95409 34187 ft 371 kts 64°
2026-04-25 13:01 28.67367 -79.92672 34321 ft 377 kts 64°
2026-04-25 13:01 28.68407 -79.89910 34451 ft 383 kts 64°
2026-04-25 13:01 28.69464 -79.87100 34592 ft 389 kts 64°
2026-04-25 13:02 28.70538 -79.84244 34728 ft 395 kts 64°
2026-04-25 13:02 28.71629 -79.81339 34877 ft 401 kts 64°
2026-04-25 13:02 28.72732 -79.78402 35025 ft 407 kts 64°
2026-04-25 13:02 28.73857 -79.75402 35142 ft 413 kts 64°
2026-04-25 13:03 28.74993 -79.72371 35294 ft 419 kts 64°
2026-04-25 13:03 28.76144 -79.69298 35429 ft 425 kts 64°
2026-04-25 13:03 28.77309 -79.66184 35563 ft 431 kts 64°
2026-04-25 13:03 28.78496 -79.63009 35712 ft 437 kts 64°
2026-04-25 13:04 28.79695 -79.59800 35857 ft 442 kts 64°
2026-04-25 13:04 28.80886 -79.56595 36000 ft 447 kts 64°
2026-04-25 13:04 28.82486 -79.53563 36122 ft 448 kts 50°
2026-04-25 13:04 28.84359 -79.50697 36268 ft 453 kts 50°
2026-04-25 13:05 28.86242 -79.47792 36430 ft 458 kts 51°
2026-04-25 13:05 28.88128 -79.44842 36590 ft 463 kts 51°
2026-04-25 13:05 28.90032 -79.41840 36760 ft 468 kts 51°
2026-04-25 13:05 28.91945 -79.38806 36867 ft 474 kts 51°
2026-04-25 13:06 28.93879 -79.35731 36996 ft 478 kts 51°
2026-04-25 13:06 28.95829 -79.32623 37136 ft 483 kts 51°
2026-04-25 13:06 28.97796 -79.29484 37254 ft 487 kts 51°
2026-04-25 13:06 28.99775 -79.26323 37381 ft 491 kts 51°
2026-04-25 13:07 29.01765 -79.23140 37533 ft 493 kts 51°
2026-04-25 13:07 29.03762 -79.19943 37704 ft 495 kts 51°
2026-04-25 13:07 29.05767 -79.16730 37872 ft 497 kts 51°
2026-04-25 13:07 29.07775 -79.13510 37990 ft 498 kts 51°
2026-04-25 13:08 29.09787 -79.10282 38116 ft 498 kts 51°
2026-04-25 13:08 29.11797 -79.07054 38257 ft 498 kts 51°
2026-04-25 13:08 29.15821 -79.00585 38330 ft 501 kts 51°
2026-04-25 13:09 29.19835 -78.94122 38400 ft 502 kts 51°
2026-04-25 13:09 29.23878 -78.87601 38430 ft 502 kts 51°
2026-04-25 13:10 29.27925 -78.81066 38470 ft 502 kts 51°
2026-04-25 13:10 29.31965 -78.74529 38474 ft 503 kts 51°
2026-04-25 13:11 29.35997 -78.67996 38524 ft 502 kts 51°
2026-04-25 13:11 29.40051 -78.61426 38529 ft 503 kts 51°
2026-04-25 13:12 29.44076 -78.54910 38525 ft 504 kts 51°
2026-04-25 13:12 29.47483 -78.49403 38529 ft 504 kts 51°
2026-04-25 13:13 29.52206 -78.41776 38531 ft 504 kts 51°
2026-04-25 13:13 29.56273 -78.35214 38535 ft 504 kts 51°
2026-04-25 13:14 29.60338 -78.28660 38546 ft 503 kts 51°
2026-04-25 13:14 29.64399 -78.22110 38560 ft 503 kts 51°
2026-04-25 13:15 29.68460 -78.15562 38560 ft 503 kts 51°
2026-04-25 13:15 29.72499 -78.09053 38560 ft 503 kts 51°
2026-04-25 13:16 29.76563 -78.02514 38556 ft 502 kts 51°
2026-04-25 13:16 29.80639 -77.95965 38557 ft 502 kts 51°
2026-04-25 13:17 29.84751 -77.89430 38575 ft 504 kts 51°
2026-04-25 13:17 29.88888 -77.82917 38576 ft 504 kts 51°
2026-04-25 13:18 29.93015 -77.76431 38578 ft 504 kts 51°
2026-04-25 13:18 29.97166 -77.69910 38578 ft 504 kts 51°
2026-04-25 13:19 30.01317 -77.63400 38578 ft 504 kts 51°
2026-04-25 13:19 30.04054 -77.59017 38572 ft 505 kts 55°
2026-04-25 13:20 30.06093 -77.52692 38571 ft 514 kts 81°
2026-04-25 13:20 30.06147 -77.48568 38579 ft 518 kts 96°
2026-04-25 13:20 30.05293 -77.44522 38579 ft 521 kts 110°
2026-04-25 13:20 30.03584 -77.40842 38577 ft 522 kts 126°
2026-04-25 13:21 30.01130 -77.37765 38577 ft 523 kts 141°
2026-04-25 13:21 29.98086 -77.35487 38582 ft 521 kts 155°
2026-04-25 13:21 29.94678 -77.34115 38592 ft 520 kts 167°
2026-04-25 13:21 29.91125 -77.33215 38588 ft 520 kts 170°
2026-04-25 13:22 29.84022 -77.31647 38584 ft 520 kts 171°
2026-04-25 13:23 29.73339 -77.29318 38576 ft 521 kts 171°
2026-04-25 13:23 29.66250 -77.27732 38577 ft 523 kts 168°
2026-04-25 13:24 29.59438 -77.24822 38578 ft 525 kts 151°
2026-04-25 13:24 29.53761 -77.19594 38644 ft 524 kts 131°
2026-04-25 13:25 29.49977 -77.12484 38647 ft 523 kts 110°
2026-04-25 13:25 29.48636 -77.04358 38634 ft 518 kts 85°
2026-04-25 13:25 29.49269 -77.00314 38643 ft 514 kts 70°
2026-04-25 13:26 29.50756 -76.96621 38648 ft 510 kts 55°
2026-04-25 13:26 29.52958 -76.93544 38648 ft 505 kts 40°
2026-04-25 13:26 29.55625 -76.90924 38647 ft 504 kts 37°
2026-04-25 13:27 29.60811 -76.85472 38639 ft 506 kts 41°
2026-04-25 13:27 29.63017 -76.82306 38566 ft 512 kts 58°
2026-04-25 13:27 29.64433 -76.78562 38578 ft 515 kts 73°
2026-04-25 13:27 29.64953 -76.74505 38831 ft 512 kts 88°
2026-04-25 13:28 29.64844 -76.70406 38987 ft 513 kts 93°
2026-04-25 13:28 29.64647 -76.62172 39007 ft 517 kts 87°
2026-04-25 13:29 29.65117 -76.55304 39007 ft 518 kts 82°
2026-04-25 13:29 29.66167 -76.47113 39011 ft 518 kts 80°
2026-04-25 13:30 29.67949 -76.34864 39011 ft 517 kts 80°
2026-04-25 13:31 29.69661 -76.22629 39014 ft 514 kts 81°
2026-04-25 13:31 29.70772 -76.14503 39015 ft 514 kts 81°
2026-04-25 13:32 29.71868 -76.06443 39016 ft 512 kts 81°
2026-04-25 13:32 29.72965 -75.98348 39017 ft 512 kts 81°
2026-04-25 13:33 29.74058 -75.90253 39018 ft 512 kts 81°
2026-04-25 13:33 29.75146 -75.82156 39020 ft 512 kts 81°
2026-04-25 13:34 29.76228 -75.74064 39018 ft 511 kts 81°
2026-04-25 13:34 29.77303 -75.65986 39017 ft 511 kts 81°
2026-04-25 13:35 29.78375 -75.57894 39016 ft 511 kts 81°
2026-04-25 13:35 29.79440 -75.49819 39017 ft 511 kts 81°
2026-04-25 13:36 29.80500 -75.41735 39017 ft 509 kts 82°
2026-04-25 13:36 29.81552 -75.33687 39017 ft 506 kts 82°
2026-04-25 13:37 29.82584 -75.25735 39018 ft 506 kts 82°
2026-04-25 13:37 29.83620 -75.17723 39021 ft 505 kts 82°
2026-04-25 13:38 29.84651 -75.09714 39015 ft 505 kts 82°
2026-04-25 13:38 29.85677 -75.01698 39017 ft 505 kts 82°
2026-04-25 13:39 29.86697 -74.93691 39018 ft 506 kts 82°
2026-04-25 13:39 29.87714 -74.85670 39017 ft 506 kts 82°
2026-04-25 13:40 29.88726 -74.77648 39020 ft 506 kts 82°
2026-04-25 13:40 29.89735 -74.69610 39020 ft 506 kts 82°
2026-04-25 13:41 29.90730 -74.61643 39024 ft 506 kts 82°
2026-04-25 13:41 29.91728 -74.53610 39024 ft 506 kts 82°
2026-04-25 13:42 29.92721 -74.45577 39024 ft 505 kts 82°
2026-04-25 13:42 29.93709 -74.37545 39026 ft 505 kts 82°
2026-04-25 13:43 29.94691 -74.29519 39026 ft 506 kts 82°
2026-04-25 13:43 29.95664 -74.21530 39025 ft 506 kts 82°
2026-04-25 13:44 29.96638 -74.13487 39024 ft 506 kts 82°
2026-04-25 13:44 29.97607 -74.05445 39034 ft 506 kts 82°
2026-04-25 13:45 29.98570 -73.97411 39026 ft 507 kts 83°
2026-04-25 13:45 29.99532 -73.89336 39029 ft 507 kts 83°
2026-04-25 13:46 30.00490 -73.81263 39028 ft 507 kts 83°
2026-04-25 13:46 30.01442 -73.73192 39032 ft 507 kts 83°
2026-04-25 13:47 30.02389 -73.65119 39029 ft 507 kts 83°
2026-04-25 13:47 30.03331 -73.57048 39034 ft 508 kts 83°
2026-04-25 13:48 30.04270 -73.48950 39032 ft 509 kts 83°
2026-04-25 13:48 30.05205 -73.40854 39031 ft 509 kts 83°
2026-04-25 13:49 30.06134 -73.32762 39031 ft 509 kts 83°
2026-04-25 13:49 30.07053 -73.24711 39028 ft 509 kts 83°
2026-04-25 13:50 30.07973 -73.16601 39034 ft 510 kts 83°
2026-04-25 13:50 30.08891 -73.08474 39036 ft 510 kts 83°
2026-04-25 13:51 30.09803 -73.00351 39035 ft 510 kts 83°
2026-04-25 13:51 30.10709 -72.92231 39034 ft 510 kts 83°
2026-04-25 13:52 30.11612 -72.84093 39037 ft 511 kts 83°
2026-04-25 13:52 30.12517 -72.75890 39037 ft 511 kts 83°
2026-04-25 13:53 30.13407 -72.67782 39041 ft 511 kts 83°
2026-04-25 13:53 30.14297 -72.59620 39036 ft 511 kts 83°
2026-04-25 13:54 30.15183 -72.51450 39043 ft 512 kts 83°
2026-04-25 13:54 30.15927 -72.43267 39044 ft 512 kts 89°
2026-04-25 13:55 30.15711 -72.35057 39041 ft 511 kts 95°
2026-04-25 13:55 30.15185 -72.26913 39042 ft 511 kts 95°
2026-04-25 13:56 30.14704 -72.18712 39042 ft 512 kts 94°
2026-04-25 13:56 30.14289 -72.10477 39043 ft 513 kts 94°
2026-04-25 13:57 30.13896 -72.02246 39043 ft 513 kts 94°
2026-04-25 13:57 30.13498 -71.94015 39042 ft 513 kts 94°
2026-04-25 13:58 30.13092 -71.85792 39051 ft 513 kts 94°
2026-04-25 13:58 30.12679 -71.77558 39037 ft 513 kts 94°
2026-04-25 13:59 30.12262 -71.69367 39037 ft 514 kts 94°
2026-04-25 13:59 30.11835 -71.61073 39037 ft 514 kts 94°
2026-04-25 14:00 30.11409 -71.52894 39046 ft 514 kts 94°
2026-04-25 14:00 30.10974 -71.44641 39047 ft 515 kts 94°
2026-04-25 14:01 30.10533 -71.36383 39035 ft 515 kts 94°
2026-04-25 14:01 30.10088 -71.28127 39051 ft 515 kts 94°
2026-04-25 14:02 30.09637 -71.19873 39049 ft 515 kts 94°
2026-04-25 14:02 30.09181 -71.11620 39042 ft 515 kts 94°
2026-04-25 14:03 30.08720 -71.03359 39048 ft 515 kts 94°
2026-04-25 14:03 30.08254 -70.95109 39034 ft 515 kts 94°
2026-04-25 14:04 30.07782 -70.86860 39044 ft 515 kts 94°
2026-04-25 14:04 30.07309 -70.78656 39049 ft 515 kts 94°
2026-04-25 14:05 30.06826 -70.70397 39045 ft 516 kts 94°
2026-04-25 14:05 30.06338 -70.62123 39045 ft 516 kts 94°
2026-04-25 14:06 30.05845 -70.53853 39046 ft 516 kts 94°
2026-04-25 14:06 30.05346 -70.45574 39047 ft 517 kts 94°
2026-04-25 14:07 30.04841 -70.37281 39045 ft 518 kts 94°
2026-04-25 14:07 30.04330 -70.28984 39045 ft 518 kts 94°
2026-04-25 14:08 30.03814 -70.20688 39045 ft 518 kts 95°
2026-04-25 14:08 30.03381 -70.13793 39037 ft 519 kts 94°
2026-04-25 14:09 30.02769 -70.04137 39051 ft 519 kts 95°
2026-04-25 14:09 30.02237 -69.95832 39051 ft 519 kts 95°
2026-04-25 14:10 30.01699 -69.87516 39046 ft 519 kts 95°
2026-04-25 14:10 30.01244 -69.80556 39059 ft 520 kts 95°
2026-04-25 14:11 30.00695 -69.72226 39054 ft 521 kts 95°
2026-04-25 14:11 30.00141 -69.63896 39042 ft 521 kts 95°
2026-04-25 14:12 29.99585 -69.55606 39044 ft 521 kts 95°
2026-04-25 14:12 29.99019 -69.47263 39051 ft 522 kts 95°
2026-04-25 14:13 29.98447 -69.38910 39044 ft 523 kts 95°
2026-04-25 14:13 29.97869 -69.30541 39045 ft 523 kts 95°
2026-04-25 14:14 29.97287 -69.22182 39055 ft 523 kts 95°
2026-04-25 14:14 29.96697 -69.13804 39055 ft 524 kts 95°
2026-04-25 14:15 29.96101 -69.05408 39051 ft 525 kts 95°
2026-04-25 14:15 29.95501 -68.97028 39060 ft 525 kts 95°
2026-04-25 14:16 29.94898 -68.88690 39054 ft 525 kts 95°
2026-04-25 14:16 29.94286 -68.80295 39046 ft 526 kts 95°
2026-04-25 14:17 29.93667 -68.71874 39060 ft 527 kts 95°
2026-04-25 14:17 29.93041 -68.63438 39056 ft 527 kts 95°
2026-04-25 14:18 29.92410 -68.55017 39056 ft 527 kts 95°
2026-04-25 14:18 29.91774 -68.46584 39056 ft 529 kts 96°
2026-04-25 14:19 29.91130 -68.38134 39055 ft 530 kts 96°
2026-04-25 14:19 29.90483 -68.29712 39049 ft 530 kts 96°
2026-04-25 14:20 29.89828 -68.21249 39050 ft 530 kts 96°
2026-04-25 14:20 29.89166 -68.12766 39054 ft 532 kts 96°
2026-04-25 14:21 29.88496 -68.04257 39050 ft 533 kts 96°
2026-04-25 14:21 29.87820 -67.95751 39050 ft 533 kts 96°
2026-04-25 14:22 29.87139 -67.87244 39072 ft 533 kts 96°
2026-04-25 14:22 29.86454 -67.78747 39048 ft 531 kts 96°
2026-04-25 14:23 29.85770 -67.70339 39062 ft 531 kts 96°
2026-04-25 14:23 29.85076 -67.61873 39060 ft 531 kts 96°
2026-04-25 14:24 29.84377 -67.53414 39049 ft 531 kts 96°
2026-04-25 14:24 29.83671 -67.44936 39046 ft 533 kts 96°
2026-04-25 14:25 29.82974 -67.36454 39049 ft 526 kts 97°
2026-04-25 14:25 29.82268 -67.28172 39045 ft 514 kts 98°
2026-04-25 14:26 29.81550 -67.20054 39051 ft 503 kts 98°
2026-04-25 14:26 29.80857 -67.12151 39040 ft 484 kts 97°
2026-04-25 14:26 29.80541 -67.08354 39052 ft 469 kts 97°
2026-04-25 14:27 29.80236 -67.04673 39040 ft 453 kts 97°
2026-04-25 14:27 29.79938 -67.01115 39057 ft 438 kts 97°
2026-04-25 14:27 29.79646 -66.97682 39041 ft 423 kts 97°
2026-04-25 14:27 29.79360 -66.94373 39041 ft 407 kts 97°
2026-04-25 14:28 29.79083 -66.91193 39036 ft 391 kts 98°
2026-04-25 14:28 29.78816 -66.88144 39025 ft 374 kts 98°
2026-04-25 14:28 29.78561 -66.85235 39025 ft 356 kts 98°
2026-04-25 14:28 29.78318 -66.82479 39018 ft 336 kts 98°
2026-04-25 14:29 29.78093 -66.79916 39005 ft 313 kts 99°
2026-04-25 14:29 29.77885 -66.77533 38958 ft 284 kts 99°
2026-04-25 14:29 29.77700 -66.75398 38713 ft 256 kts 99°
2026-04-25 14:29 29.77511 -66.73338 36882 ft 259 kts 109°
2026-04-25 14:30 29.76995 -66.71583 32246 ft 208 kts 160°
2026-04-25 14:30 29.74522 -66.71283 20318 ft 205 kts 192°
2026-04-25 14:30 29.73471 -66.71323 14904 ft 109 kts 87°
2026-04-25 14:31 29.73137 -66.71179 8628 ft 2 kts 238°
2026-04-25 14:31 29.73025 -66.71081 2953 ft 25 kts 170°
2026-04-25 14:31 29.72869 -66.71062 12 ft 4 kts 342°
2026-04-25 14:31 29.72861 -66.71090 10 ft 3 kts 342°
2026-04-25 14:32 29.72854 -66.71113 10 ft 3 kts 342°
2026-04-25 14:32 29.72850 -66.71126 10 ft 3 kts 342°
2026-04-25 14:32 29.72845 -66.71144 10 ft 2 kts 342°
2026-04-25 14:32 29.72843 -66.71154 10 ft 2 kts 342°